Location: Unspecified
(33.9918°N, 0.0000°E)
Time: 00:43:30
(UTC+00:00)

NOAA 16 DEB - Visible Passes

Search period start: 04 April 2026 00:00
Search period end: 14 April 2026 00:00
Orbit: 794 x 822 km, 98.6° (Epoch: 28 March)

Date Brightness Start Highest point End Pass type
(mag) Time Alt. Az. Time Alt. Az. Time Alt. Az.
4 Apr ? 20:16:52 40° S 20:18:53 86° WSW 20:24:17 10° NNW visible
5 Apr ? 19:52:13 30° SE 19:54:41 55° ENE 19:59:55 10° N visible
5 Apr ? 21:33:18 14° WSW 21:34:47 15° W 21:37:49 10° WNW visible
6 Apr ? 19:27:33 19° ESE 19:30:34 32° ENE 19:35:16 10° N visible
6 Apr ? 21:08:39 23° SW 21:10:19 27° W 21:14:49 10° NW visible
7 Apr ? 19:02:53 10° ESE 19:06:31 19° ENE 19:10:12 10° NNE visible
7 Apr ? 20:43:59 32° SSW 20:45:56 46° W 20:51:06 10° NNW visible
8 Apr ? 20:19:18 35° S 20:21:37 82° WSW 20:27:01 10° NNW visible
9 Apr ? 19:54:38 28° SE 19:57:23 58° ENE 20:02:40 10° N visible
9 Apr ? 21:35:44 12° WSW 21:37:31 14° W 21:40:18 10° WNW visible
10 Apr ? 19:29:57 18° ESE 19:33:13 34° ENE 19:38:01 10° N visible
10 Apr ? 21:11:03 20° SW 21:13:01 25° W 21:17:24 10° NW visible
11 Apr ? 19:05:19 10° ESE 19:09:09 20° ENE 19:12:59 10° NNE visible
11 Apr ? 20:46:22 29° SSW 20:48:36 44° W 20:53:43 10° NNW visible
12 Apr ? 20:21:40 32° S 20:24:15 77° WSW 20:29:38 10° NNW visible
13 Apr ? 19:56:58 26° SE 19:59:59 62° ENE 20:05:17 10° N visible
13 Apr ? 21:38:04 11° WSW 21:40:09 13° W 21:42:40 10° WNW visible
